Location: La Chaire
(48.2383°N, 1.3428°W)
Time: 18:01:29
(UTC+00:00)

Daily predictions for brighter satellites

Satellite Brightness Start Highest point End
(mag) Time Altitude Azimuth Time Altitude Azimuth Time Altitude Azimuth
Cosmos 2333 Rocket 3.3 20:42:35 10° SSE 20:47:03 24° ESE 20:51:34 10° NE
ATLAS 2AS CENTAUR R/B 4.3 20:42:11 10° NW 20:49:04 32° NNE 20:55:30 10° E
Resurs 01 Rocket 2.1 20:48:03 10° S 20:52:25 61° WSW 20:56:48 10° NNW
Cosmos 1818 3.6 20:48:34 10° SSW 20:53:53 60° ESE 20:59:15 10° NE
CZ-2C R/B 3.6 20:48:52 10° N 20:54:09 52° WNW 20:59:17 10° SW
Cosmos-2242 3.3 20:50:03 10° N 20:54:19 53° ENE 20:58:35 10° SSE
SL-16 R/B 3.0 20:52:10 10° SW 20:57:45 59° WNW 21:03:23 10° NNE
ERS-1 Rocket 3.5 20:57:12 10° SE 21:01:59 46° ENE 21:06:48 10° N
GEOS 3 Rocket 3.9 20:59:10 10° NE 21:04:26 52° SE 21:09:41 10° SSW
Cosmos 2278 Rocket 3.6 21:02:35 10° NNW 21:07:28 29° NE 21:12:20 10° ESE
USA 215 3.7 21:01:58 10° ENE 21:08:03 39° SE 21:14:05 10° SSW
ATLAS 5 CENTAUR R/B 1.5 21:06:25 10° SSW 21:10:31 67° SE 21:15:09 10° NE
USA 245 3.2 21:08:51 10° SSE 21:12:07 82° WSW 21:16:21 10° NNW
Cosmos 1844 Rocket 2.8 21:07:05 10° NNW 21:12:41 78° WSW 21:18:14 10° SSE
Gblst 52 Del rocket 4.4 21:07:16 10° WNW 21:12:54 76° NNE 21:19:08 10° ESE
Cosmos 1400 Rocket 2.8 21:09:39 10° N 21:13:41 85° E 21:17:36 10° SSE
Cosmos 1758 Rocket 3.6 21:10:28 10° S 21:14:58 89° ESE 21:19:30 10° N
Meteor 2-10 Rocket 4.3 21:11:47 10° NNW 21:16:43 51° W 21:21:48 10° S
SPOT 5 3.2 21:13:56 11° SSE 21:18:39 54° ENE 21:23:20 10° N
Lacrosse 5 rocket 3.7 21:15:02 10° WNW 21:18:41 27° NNW 21:22:10 10° NE
BREEZE-M DEB (TANK) 4.3 21:15:40 10° W 21:19:38 82° N 21:34:48 10° E
Spot 2 Rocket 3.8 21:17:26 10° S 21:22:30 69° WSW 21:27:36 10° NNW
USA 81 4.4 21:19:56 10° SSE 21:25:00 50° E 21:30:07 10° NNE
BREEZE M DEB (TANK) 2.1 21:23:44 10° WNW 21:26:26 44° SSW 21:27:39 19° SE
Landsat 7 4.1 21:22:17 10° S 21:27:00 66° WSW 21:31:46 10° NNW
Cosmos 2181 Rocket 4.1 21:22:13 10° N 21:28:34 67° ENE 21:34:15 13° SSE
SPOT 1/Viking Rocket 3.8 21:31:59 10° S 21:37:06 67° WSW 21:42:16 10° NNW
Cosmos 1953 Rocket 3.5 21:33:46 10° S 21:38:05 85° ESE 21:42:27 10° N
USA 267 3.6 21:34:57 10° ESE 21:41:27 67° NNE 21:47:58 10° NW
Cosmos 1328 4.5 21:39:00 10° SSW 21:42:54 55° WNW 21:46:49 10° N
SAR-Lupe-2 3.7 21:40:11 10° N 21:43:47 76° WNW 21:47:22 10° SSW
Cosmos 2084 3.6 21:40:17 10° NW 21:44:47 77° NE 21:48:05 18° SE
Cosmos 2322 Rocket 4.0 21:40:11 10° WSW 21:45:15 34° NW 21:50:22 10° NNE
Cosmos 1842 Rocket 3.9 21:41:52 10° N 21:46:07 50° ENE 21:49:02 19° SE
Cosmos 1455 4.3 21:43:49 10° NW 21:46:56 24° W 21:50:03 10° SW
ATLAS CENTAUR R/B 1.0 21:52:36 10° NW 21:56:18 84° WSW 21:58:26 23° SE
Cosmos 1825 4.3 21:58:09 12° E 21:59:10 13° E 22:00:50 10° ENE
COSMOS 2428 2.6 21:59:14 10° SSW 22:04:52 77° ESE 22:10:34 10° NNE
Cosmos 1869 3.4 22:03:09 10° N 22:07:07 66° E 22:09:22 25° SSE
Cosmos 2322 4.2 22:03:08 10° SW 22:08:49 65° WNW 22:14:31 10° NNE
NOSS 0 Rocket 4.2 22:07:31 15° S 22:12:21 49° ESE 22:18:16 10° NE
NOSS 3-4 (A) 4.2 22:06:24 10° NW 22:13:12 62° NE 22:19:46 14° ESE
NOSS 3-4 (C) 4.2 22:06:30 10° NW 22:13:19 62° NE 22:19:54 14° ESE
Terra 2.0 22:10:33 19° S 22:13:58 66° WSW 22:18:44 10° NNW
Cosmos 2237 Rocket 2.7 22:14:58 21° SSE 22:18:21 41° ESE 22:23:40 10° NE
Genesis I 4.4 22:18:36 23° ESE 22:18:48 24° ESE 22:21:57 10° ENE
BREEZE-M DEB 4.2 22:15:46 10° WNW 22:19:42 70° SSW 22:35:02 10° ESE
Cosmos 2219 Rocket 2.3 22:15:07 10° SSW 22:20:42 76° WNW 22:26:21 10° NNE
Cosmos 2344 4.1 22:16:02 18° SSE 22:20:47 36° ESE 22:27:44 10° NE
Atlas Centaur 2 4.1 22:17:41 10° SW 22:21:20 15° S 22:21:20 15° S
Cosmos 1538 Rocket 4.3 22:16:37 10° SSW 22:21:59 73° WNW 22:27:20 10° NNE
Cosmos 2360 Rocket 4.0 22:18:05 10° WSW 22:23:08 32° NW 22:28:14 10° NNE
NOSS 3-3 (A) 3.9 22:17:22 10° SW 22:23:15 90° WNW 22:29:59 10° NE
NOSS 3-3 (C) 3.9 22:17:27 10° SW 22:23:22 90° SE 22:30:06 10° NE
Cosmos 1315 Rocket 3.9 22:23:24 10° NNW 22:27:15 41° W 22:29:55 18° SSW
DELTA 2 R/B (1) 4.4 22:23:12 10° SW 22:27:50 27° SSE 22:30:02 21° SE
Cosmos 2333 Rocket 2.7 22:25:15 10° SW 22:30:52 61° WNW 22:36:35 10° NNE
Thor Agena Rocket 4.0 22:26:02 10° NNE 22:30:54 43° E 22:33:18 26° SSE
Meteor 2-2 Rocket 4.3 22:26:21 10° NNW 22:32:11 78° W 22:35:55 23° S
Cosmos 2184 Rocket 4.0 22:27:10 17° S 22:32:12 88° W 22:38:33 10° N
Cosmos 2221 2.9 22:32:35 10° NNW 22:36:54 59° W 22:39:20 24° SSW
BREEZE-M DEB (TANK) 1.8 22:35:14 10° WNW 22:39:58 78° N 22:41:21 25° E
Iridium 2 4.0 22:37:19 10° N 22:41:06 54° E 22:42:26 34° SE
Cosmos 1371 Rocket 4.3 22:36:01 10° NNW 22:41:14 61° ENE 22:44:15 25° SE
ATLAS 2AS CENTAUR R/B 2.9 22:33:34 10° NW 22:41:15 78° NE 22:46:25 20° SE
Cosmos 1892 2.6 22:41:59 31° S 22:43:42 87° WNW 22:47:31 10° N
EO 1 Del DPAF 3.7 22:40:23 10° NNE 22:44:00 43° E 22:44:59 35° SE
Aureole 2 Rocket 3.6 22:45:53 10° N 22:48:18 25° ENE 22:48:59 22° E
Cosmos 1606 4.0 22:47:28 10° N 22:50:57 30° ENE 22:52:19 24° ESE
Cosmos 2112 Rocket 4.1 22:48:23 26° S 22:51:21 64° ESE 22:56:41 10° NNE
USA 215 3.4 22:44:50 10° NE 22:51:25 78° NNW 22:57:57 10° WSW
Cosmos 2278 Rocket 2.4 22:46:22 10° NNW 22:51:58 60° WSW 22:54:59 27° S
Cosmos 2297 4.4 22:47:47 10° NNW 22:53:22 48° NE 22:57:11 19° ESE
Cosmos 158 Rocket 3.8 22:52:56 27° S 22:55:32 72° ESE 23:00:28 10° NNE
ATLAS 5 CENTAUR R/B 4.0 22:51:54 10° W 22:55:37 26° NNW 22:59:46 10° NNE
Lacrosse 5 rocket 3.5 22:55:21 10° NW 22:58:48 25° N 23:02:07 10° ENE
Cosmos 1943 Rocket 3.7 22:54:47 10° NNW 22:59:47 30° NE 23:04:40 10° ESE
Spot 4 3.8 22:59:07 32° SSE 23:01:22 88° WSW 23:06:11 10° NNW
SL-16 R/B 3.0 23:00:46 27° SE 23:02:44 35° ESE 23:07:50 10° NE
Cosmos 2058 3.4 23:01:10 24° SSW 23:03:28 56° WNW 23:07:34 10° N
Cosmos 1408 2.5 23:03:24 41° SSW 23:04:32 80° W 23:08:07 10° N
Cosmos 2056 Rocket 3.6 22:59:46 10° NNW 23:05:13 82° ENE 23:07:58 30° SSE
Nadezhda 3 Rocket 4.2 23:03:49 10° NNW 23:10:08 65° W 23:13:54 25° SSW
Cosmos 2154 Rocket 4.2 23:07:50 21° SSW 23:12:07 70° WNW 23:18:20 10° N
Cosmos 2341 Rocket 4.0 23:11:46 29° S 23:15:10 74° E 23:21:23 10° NNE
Cosmos 1076 Rocket 4.2 23:12:53 23° SW 23:15:18 48° WNW 23:19:28 10° N
Cosmos 1680 Rocket 3.8 23:15:58 19° SW 23:19:45 68° WNW 23:25:06 10° NNE
Meteor 2-3 Rocket 4.4 23:21:02 27° SE 23:23:23 40° E 23:28:40 10° NNE
USA 267 3.5 23:21:24 28° SSE 23:24:38 50° SW 23:31:00 10° WNW
Cosmos 2151 2.9 23:23:52 39° SSW 23:25:27 85° W 23:29:45 10° N
Helios 1A 3.8 23:24:53 27° ESE 23:26:33 41° ENE 23:30:29 10° N
Cosmos 1452 Rocket 4.0 23:27:03 10° NNW 23:32:14 53° ENE 23:35:06 25° SE
CZ-4C R/B 3.9 23:25:57 10° NW 23:32:24 42° NE 23:39:53 10° ESE
BREEZE-M DEB (TANK) 4.2 23:30:24 10° W 23:32:45 16° WSW 23:32:45 16° WSW
COSMOS 2455 3.4 23:27:52 10° NNW 23:33:49 55° NE 23:38:24 17° ESE
SL-8 Rocket 3.9 23:30:59 31° S 23:34:08 76° E 23:40:17 10° NNE
Cosmos 1825 2.6 23:32:56 36° SW 23:34:11 55° WNW 23:37:55 10° N
IRIDIUM 114 4.4 23:32:35 35° SSE 23:34:47 70° E 23:40:00 10° N
Cosmos 1340 3.1 23:34:23 42° SE 23:34:57 45° E 23:38:35 10° NNE
ALOS 2 2.6 23:35:27 41° S 23:36:55 76° WSW 23:41:20 10° NNW
Cosmos 1933 3.3 23:33:06 10° N 23:37:08 75° E 23:38:13 46° SSE
Cosmos 1408 Rocket 4.0 23:35:56 38° SE 23:37:09 50° E 23:41:26 10° NNE
Cosmos 1151 Rocket 2.9 23:34:20 10° N 23:38:42 83° ENE 23:40:03 44° SSE
Meteor 2-12 Rocket 4.5 23:37:27 32° S 23:40:25 71° E 23:46:33 10° NNE
IRIDIUM 103 4.3 23:41:42 36° S 23:43:55 84° E 23:49:10 10° N
APEX 3.0 23:41:38 10° NNW 23:44:18 46° ENE 23:44:22 46° ENE
Cosmos 2369 Rocket 3.1 23:39:13 10° NNW 23:44:32 42° NE 23:48:49 15° ESE
Cosmos 1727 Rocket 4.2 23:38:32 10° N 23:44:43 63° ENE 23:48:04 28° SSE
Cosmos 44 2.9 23:43:37 43° SSW 23:44:56 71° SE 23:49:23 10° NE
GP-B 3.1 23:42:52 10° N 23:47:19 77° W 23:48:50 41° SSW
SL-4 R/B 2.7 23:48:59 26° N 23:48:59 26° N 23:50:04 10° N
Cosmos 371 Rocket 3.2 23:43:40 10° NNW 23:48:34 90° SSW 23:50:25 39° SSE
Helios 1B rocket 3.9 23:51:10 10° NE 23:54:31 23° E 23:55:23 22° ESE
CREW DRAGON DEMO-1 DEB 2.7 23:54:49 83° NW 23:54:52 84° NNW 23:57:57 10° ENE
Genesis I 4.3 23:53:26 17° WSW 23:56:11 43° NW 23:59:56 10° NNE
